Year,Month,Day,Hour,Minute,Value (Times are PST for temperature in C)
2012,03,24,00,00,5.80
2012,03,24,00,01,5.80
2012,03,24,00,02,5.80
2012,03,24,00,03,5.80
2012,03,24,00,04,5.70
2012,03,24,00,05,5.70
2012,03,24,00,06,5.70
2012,03,24,00,07,5.70
2012,03,24,00,08,5.70
2012,03,24,00,09,5.70
2012,03,24,00,10,5.70
2012,03,24,00,11,5.70
2012,03,24,00,12,5.70
2012,03,24,00,13,5.70
2012,03,24,00,14,5.70
2012,03,24,00,15,5.70
2012,03,24,00,16,5.70
2012,03,24,00,17,5.70
2012,03,24,00,18,5.70
2012,03,24,00,19,5.70
2012,03,24,00,20,5.80
2012,03,24,00,21,5.80
2012,03,24,00,22,5.80
2012,03,24,00,23,5.80
2012,03,24,00,24,5.80
2012,03,24,00,25,5.80
2012,03,24,00,26,5.80
2012,03,24,00,27,5.80
2012,03,24,00,28,5.80
2012,03,24,00,29,5.80
2012,03,24,00,30,5.80
2012,03,24,00,31,5.80
2012,03,24,00,32,5.80
2012,03,24,00,33,5.80
2012,03,24,00,34,5.80
2012,03,24,00,35,5.80
2012,03,24,00,36,5.80
2012,03,24,00,37,5.80
2012,03,24,00,38,5.80
2012,03,24,00,39,5.80
2012,03,24,00,40,5.80
2012,03,24,00,41,5.80
2012,03,24,00,42,5.80
2012,03,24,00,43,5.80
2012,03,24,00,44,5.80
2012,03,24,00,45,5.80
2012,03,24,00,46,5.80
2012,03,24,00,47,5.80
2012,03,24,00,48,5.80
2012,03,24,00,49,5.80
2012,03,24,00,50,5.80
2012,03,24,00,51,5.80
2012,03,24,00,52,5.80
2012,03,24,00,53,5.90
2012,03,24,00,54,5.90
2012,03,24,00,55,5.80
2012,03,24,00,56,5.80
2012,03,24,00,57,5.80
2012,03,24,00,58,5.90
2012,03,24,00,59,5.90
2012,03,24,01,00,5.90
2012,03,24,01,01,5.90
2012,03,24,01,02,5.90
2012,03,24,01,03,5.90
2012,03,24,01,04,5.90
2012,03,24,01,05,5.90
2012,03,24,01,06,5.80
2012,03,24,01,07,5.80
2012,03,24,01,08,5.80
2012,03,24,01,09,5.80
2012,03,24,01,10,5.80
2012,03,24,01,11,5.90
2012,03,24,01,12,5.90
2012,03,24,01,13,5.80
2012,03,24,01,14,5.80
2012,03,24,01,15,5.80
2012,03,24,01,16,5.80
2012,03,24,01,17,5.80
2012,03,24,01,18,5.80
2012,03,24,01,19,5.80
2012,03,24,01,20,5.80
2012,03,24,01,21,5.80
2012,03,24,01,22,5.80
2012,03,24,01,23,5.80
2012,03,24,01,24,5.90
2012,03,24,01,25,5.90
2012,03,24,01,26,5.90
2012,03,24,01,27,5.90
2012,03,24,01,28,5.90
2012,03,24,01,29,5.90
2012,03,24,01,30,5.90
2012,03,24,01,31,5.90
2012,03,24,01,32,5.90
2012,03,24,01,33,5.90
2012,03,24,01,34,5.90
2012,03,24,01,35,5.90
2012,03,24,01,36,5.90
2012,03,24,01,37,5.90
2012,03,24,01,38,5.90
2012,03,24,01,39,5.90
2012,03,24,01,40,5.90
2012,03,24,01,41,5.90
2012,03,24,01,42,5.90
2012,03,24,01,43,5.90
2012,03,24,01,44,5.90
2012,03,24,01,45,5.90
2012,03,24,01,46,5.90
2012,03,24,01,47,5.90
2012,03,24,01,48,5.90
2012,03,24,01,49,5.90
2012,03,24,01,50,5.90
2012,03,24,01,51,5.90
2012,03,24,01,52,5.90
2012,03,24,01,53,5.90
2012,03,24,01,54,5.90
2012,03,24,01,55,5.90
2012,03,24,01,56,5.90
2012,03,24,01,57,5.90
2012,03,24,01,58,5.90
2012,03,24,01,59,5.90
2012,03,24,02,00,5.80
2012,03,24,02,01,5.80
2012,03,24,02,02,5.80
2012,03,24,02,03,5.80
2012,03,24,02,04,5.80
2012,03,24,02,05,5.80
2012,03,24,02,06,5.80
2012,03,24,02,07,5.80
2012,03,24,02,08,5.80
2012,03,24,02,09,5.80
2012,03,24,02,10,5.80
2012,03,24,02,11,5.80
2012,03,24,02,12,5.70
2012,03,24,02,13,5.70
2012,03,24,02,14,5.70
2012,03,24,02,15,5.70
2012,03,24,02,16,5.70
2012,03,24,02,17,5.70
2012,03,24,02,18,5.70
2012,03,24,02,19,5.70
2012,03,24,02,20,5.80
2012,03,24,02,21,5.80
2012,03,24,02,22,5.80
2012,03,24,02,23,5.80
2012,03,24,02,24,5.80
2012,03,24,02,25,5.80
2012,03,24,02,26,5.80
2012,03,24,02,27,5.80
2012,03,24,02,28,5.80
2012,03,24,02,29,5.80
2012,03,24,02,30,5.80
2012,03,24,02,31,5.80
2012,03,24,02,32,5.70
2012,03,24,02,33,5.70
2012,03,24,02,34,5.70
2012,03,24,02,35,5.70
2012,03,24,02,36,5.70
2012,03,24,02,37,5.70
2012,03,24,02,38,5.70
2012,03,24,02,39,5.70
2012,03,24,02,40,5.70
2012,03,24,02,41,5.70
2012,03,24,02,42,5.70
2012,03,24,02,43,5.70
2012,03,24,02,44,5.70
2012,03,24,02,45,5.70
2012,03,24,02,46,5.70
2012,03,24,02,47,5.70
2012,03,24,02,48,5.70
2012,03,24,02,49,5.70
2012,03,24,02,50,5.70
2012,03,24,02,51,5.70
2012,03,24,02,52,5.70
2012,03,24,02,53,5.70
2012,03,24,02,54,5.70
2012,03,24,02,55,5.80
2012,03,24,02,56,5.80
2012,03,24,02,57,5.80
2012,03,24,02,58,5.80
2012,03,24,02,59,5.80
2012,03,24,03,00,5.80
2012,03,24,03,01,5.80
2012,03,24,03,02,5.80
2012,03,24,03,03,5.80
2012,03,24,03,04,5.80
2012,03,24,03,05,5.80
2012,03,24,03,06,5.80
2012,03,24,03,07,5.80
2012,03,24,03,08,5.80
2012,03,24,03,09,5.80
2012,03,24,03,10,5.80
2012,03,24,03,11,5.80
2012,03,24,03,12,5.80
2012,03,24,03,13,5.80
2012,03,24,03,14,5.80
2012,03,24,03,15,5.80
2012,03,24,03,16,5.80
2012,03,24,03,17,5.80
2012,03,24,03,18,5.80
2012,03,24,03,19,5.80
2012,03,24,03,20,5.80
2012,03,24,03,21,5.80
2012,03,24,03,22,5.80
2012,03,24,03,23,5.80
2012,03,24,03,24,5.80
2012,03,24,03,25,5.80
2012,03,24,03,26,5.80
2012,03,24,03,27,5.70
2012,03,24,03,28,5.80
2012,03,24,03,29,5.70
2012,03,24,03,30,5.70
2012,03,24,03,31,5.70
2012,03,24,03,32,5.70
2012,03,24,03,33,5.70
2012,03,24,03,34,5.70
2012,03,24,03,35,5.70
2012,03,24,03,36,5.70
2012,03,24,03,37,5.70
2012,03,24,03,38,5.70
2012,03,24,03,39,5.70
2012,03,24,03,40,5.70
2012,03,24,03,41,5.70
2012,03,24,03,42,5.70
2012,03,24,03,43,5.70
2012,03,24,03,44,5.70
2012,03,24,03,45,5.70
2012,03,24,03,46,5.80
2012,03,24,03,47,5.80
2012,03,24,03,48,5.70
2012,03,24,03,49,5.70
2012,03,24,03,50,5.70
2012,03,24,03,51,5.70
2012,03,24,03,52,5.70
2012,03,24,03,53,5.70
2012,03,24,03,54,5.70
2012,03,24,03,55,5.70
2012,03,24,03,56,5.70
2012,03,24,03,57,5.70
2012,03,24,03,58,5.60
2012,03,24,03,59,5.60
2012,03,24,04,00,5.60
2012,03,24,04,01,5.60
2012,03,24,04,02,5.60
2012,03,24,04,03,5.60
2012,03,24,04,04,5.60
2012,03,24,04,05,5.60
2012,03,24,04,06,5.60
2012,03,24,04,07,5.50
2012,03,24,04,08,5.50
2012,03,24,04,09,5.50
2012,03,24,04,10,5.50
2012,03,24,04,11,5.50
2012,03,24,04,12,5.50
2012,03,24,04,13,5.50
2012,03,24,04,14,5.40
2012,03,24,04,15,5.40
2012,03,24,04,16,5.40
2012,03,24,04,17,5.40
2012,03,24,04,18,5.50
2012,03,24,04,19,5.50
2012,03,24,04,20,5.50
2012,03,24,04,21,5.50
2012,03,24,04,22,5.50
2012,03,24,04,23,5.50
2012,03,24,04,24,5.50
2012,03,24,04,25,5.50
2012,03,24,04,26,5.50
2012,03,24,04,27,5.50
2012,03,24,04,28,5.50
2012,03,24,04,29,5.50
2012,03,24,04,30,5.40
2012,03,24,04,31,5.40
2012,03,24,04,32,5.40
2012,03,24,04,33,5.40
2012,03,24,04,34,5.40
2012,03,24,04,35,5.40
2012,03,24,04,36,5.50
2012,03,24,04,37,5.50
2012,03,24,04,38,5.50
2012,03,24,04,39,5.60
2012,03,24,04,40,5.60
2012,03,24,04,41,5.60
2012,03,24,04,42,5.60
2012,03,24,04,43,5.70
2012,03,24,04,44,5.70
2012,03,24,04,45,5.70
2012,03,24,04,46,5.70
2012,03,24,04,47,5.80
2012,03,24,04,48,5.80
2012,03,24,04,49,5.80
2012,03,24,04,50,5.80
2012,03,24,04,51,5.80
2012,03,24,04,52,5.80
2012,03,24,04,53,5.80
2012,03,24,04,54,5.80
2012,03,24,04,55,5.80
2012,03,24,04,56,5.80
2012,03,24,04,57,5.80
2012,03,24,04,58,5.80
2012,03,24,04,59,5.80
2012,03,24,05,00,5.80
2012,03,24,05,01,5.80
2012,03,24,05,02,5.70
2012,03,24,05,03,5.70
2012,03,24,05,04,5.70
2012,03,24,05,08,5.70
2012,03,24,05,09,5.70
2012,03,24,05,11,5.70
2012,03,24,05,12,5.70
2012,03,24,05,13,5.70
2012,03,24,05,14,5.70
2012,03,24,05,15,5.70
2012,03,24,05,16,5.70
2012,03,24,05,17,5.70
2012,03,24,05,18,5.70
2012,03,24,05,19,5.70
2012,03,24,05,20,5.70
2012,03,24,05,21,5.70
2012,03,24,05,22,5.70
2012,03,24,05,23,5.70
2012,03,24,05,24,5.70
2012,03,24,05,25,5.70
2012,03,24,05,26,5.70
2012,03,24,05,27,5.70
2012,03,24,05,28,5.70
2012,03,24,05,29,5.60
2012,03,24,05,30,5.60
2012,03,24,05,31,5.60
2012,03,24,05,32,5.60
2012,03,24,05,33,5.60
2012,03,24,05,34,5.60
2012,03,24,05,35,5.60
2012,03,24,05,36,5.60
2012,03,24,05,37,5.60
2012,03,24,05,38,5.60
2012,03,24,05,39,5.60
2012,03,24,05,40,5.50
2012,03,24,05,41,5.50
2012,03,24,05,42,5.60
2012,03,24,05,43,5.60
2012,03,24,05,44,5.50
2012,03,24,05,45,5.50
2012,03,24,05,46,5.50
2012,03,24,05,47,5.50
2012,03,24,05,48,5.50
2012,03,24,05,49,5.50
2012,03,24,05,50,5.50
2012,03,24,05,51,5.50
2012,03,24,05,52,5.50
2012,03,24,05,53,5.60
2012,03,24,05,54,5.60
2012,03,24,05,55,5.50
2012,03,24,05,56,5.50
2012,03,24,05,57,5.50
2012,03,24,05,58,5.50
2012,03,24,05,59,5.50
2012,03,24,06,00,5.50
2012,03,24,06,01,5.50
2012,03,24,06,02,5.50
2012,03,24,06,03,5.50
2012,03,24,06,04,5.50
2012,03,24,06,05,5.60
2012,03,24,06,06,5.50
2012,03,24,06,07,5.50
2012,03,24,06,08,5.50
2012,03,24,06,09,5.60
2012,03,24,06,10,5.50
2012,03,24,06,11,5.50
2012,03,24,06,12,5.50
2012,03,24,06,13,5.50
2012,03,24,06,14,5.50
2012,03,24,06,15,5.50
2012,03,24,06,16,5.50
2012,03,24,06,17,5.50
2012,03,24,06,18,5.40
2012,03,24,06,19,5.40
2012,03,24,06,20,5.40
2012,03,24,06,21,5.40
2012,03,24,06,22,5.40
2012,03,24,06,23,5.40
2012,03,24,06,24,5.40
2012,03,24,06,25,5.40
2012,03,24,06,26,5.40
2012,03,24,06,27,5.40
2012,03,24,06,28,5.40
2012,03,24,06,29,5.40
2012,03,24,06,30,5.40
2012,03,24,06,31,5.40
2012,03,24,06,32,5.40
2012,03,24,06,33,5.40
2012,03,24,06,34,5.40
2012,03,24,06,35,5.40
2012,03,24,06,36,5.40
2012,03,24,06,37,5.40
2012,03,24,06,38,5.40
2012,03,24,06,39,5.40
2012,03,24,06,40,5.40
2012,03,24,06,41,5.40
2012,03,24,06,42,5.40
2012,03,24,06,43,5.40
2012,03,24,06,44,5.40
2012,03,24,06,45,5.40
2012,03,24,06,46,5.40
2012,03,24,06,47,5.40
2012,03,24,06,48,5.40
2012,03,24,06,49,5.40
2012,03,24,06,50,5.40
2012,03,24,06,51,5.40
2012,03,24,06,52,5.40
2012,03,24,06,53,5.40
2012,03,24,06,54,5.40
2012,03,24,06,55,5.30
2012,03,24,06,56,5.30
2012,03,24,06,57,5.30
2012,03,24,06,58,5.30
2012,03,24,06,59,5.30
2012,03,24,07,00,5.30
2012,03,24,07,01,5.30
2012,03,24,07,02,5.30
2012,03,24,07,03,5.30
2012,03,24,07,04,5.30
2012,03,24,07,05,5.30
2012,03,24,07,06,5.30
2012,03,24,07,07,5.30
2012,03,24,07,08,5.30
2012,03,24,07,09,5.30
2012,03,24,07,10,5.30
2012,03,24,07,11,5.30
2012,03,24,07,12,5.30
2012,03,24,07,13,5.30
2012,03,24,07,14,5.30
2012,03,24,07,15,5.30
2012,03,24,07,16,5.30
2012,03,24,07,17,5.30
2012,03,24,07,18,5.30
2012,03,24,07,19,5.30
2012,03,24,07,20,5.30
2012,03,24,07,21,5.30
2012,03,24,07,22,5.30
2012,03,24,07,23,5.30
2012,03,24,07,24,5.30
2012,03,24,07,25,5.30
2012,03,24,07,26,5.30
2012,03,24,07,27,5.30
2012,03,24,07,28,5.30
2012,03,24,07,29,5.40
2012,03,24,07,30,5.40
2012,03,24,07,31,5.40
2012,03,24,07,32,5.40
2012,03,24,07,33,5.40
2012,03,24,07,34,5.40
2012,03,24,07,35,5.40
2012,03,24,07,36,5.40
2012,03,24,07,37,5.50
2012,03,24,07,38,5.50
2012,03,24,07,39,5.50
2012,03,24,07,40,5.60
2012,03,24,07,41,5.60
2012,03,24,07,42,5.60
2012,03,24,07,43,5.60
2012,03,24,07,44,5.60
2012,03,24,07,45,5.60
2012,03,24,07,46,5.60
2012,03,24,07,47,5.60
2012,03,24,07,48,5.60
2012,03,24,07,49,5.60
2012,03,24,07,50,5.60
2012,03,24,07,51,5.60
2012,03,24,07,52,5.60
2012,03,24,07,53,5.60
2012,03,24,07,54,5.60
2012,03,24,07,55,5.60
2012,03,24,07,56,5.60
2012,03,24,07,57,5.60
2012,03,24,07,58,5.60
2012,03,24,07,59,5.60
2012,03,24,08,00,5.60
2012,03,24,08,01,5.60
2012,03,24,08,02,5.60
2012,03,24,08,03,5.60
2012,03,24,08,04,5.60
2012,03,24,08,05,5.60
2012,03,24,08,06,5.60
2012,03,24,08,07,5.60
2012,03,24,08,08,5.60
2012,03,24,08,09,5.60
2012,03,24,08,10,5.60
2012,03,24,08,11,5.60
2012,03,24,08,12,5.60
2012,03,24,08,13,5.60
2012,03,24,08,14,5.60
2012,03,24,08,15,5.60
2012,03,24,08,16,5.70
2012,03,24,08,17,5.70
2012,03,24,08,18,5.70
2012,03,24,08,19,5.70
2012,03,24,08,20,5.70
2012,03,24,08,21,5.70
2012,03,24,08,22,5.70
2012,03,24,08,23,5.70
2012,03,24,08,24,5.80
2012,03,24,08,25,5.80
2012,03,24,08,26,5.80
2012,03,24,08,27,5.80
2012,03,24,08,28,5.80
2012,03,24,08,29,5.80
2012,03,24,08,30,5.80
2012,03,24,08,31,5.80
2012,03,24,08,32,5.80
2012,03,24,08,33,5.90
2012,03,24,08,34,5.90
2012,03,24,08,35,5.90
2012,03,24,08,36,5.90
2012,03,24,08,37,5.90
2012,03,24,08,38,5.90
2012,03,24,08,39,6.00
2012,03,24,08,40,6.00
2012,03,24,08,41,6.00
2012,03,24,08,42,6.00
2012,03,24,08,43,6.00
2012,03,24,08,44,6.00
2012,03,24,08,45,6.00
2012,03,24,08,46,6.00
2012,03,24,08,47,6.00
2012,03,24,08,48,6.00
2012,03,24,08,49,6.00
2012,03,24,08,50,6.00
2012,03,24,08,51,6.00
2012,03,24,08,52,6.00
2012,03,24,08,53,6.00
2012,03,24,08,54,6.10
2012,03,24,08,55,6.10
2012,03,24,08,56,6.10
2012,03,24,08,57,6.20
2012,03,24,08,58,6.20
2012,03,24,08,59,6.30
2012,03,24,09,00,6.30
2012,03,24,09,01,6.30
2012,03,24,09,02,6.40
2012,03,24,09,03,6.40
2012,03,24,09,04,6.40
2012,03,24,09,05,6.40
2012,03,24,09,06,6.40
2012,03,24,09,07,6.50
2012,03,24,09,08,6.50
2012,03,24,09,09,6.50
2012,03,24,09,10,6.60
2012,03,24,09,11,6.60
2012,03,24,09,12,6.60
2012,03,24,09,13,6.60
2012,03,24,09,14,6.70
2012,03,24,09,15,6.70
2012,03,24,09,16,6.70
2012,03,24,09,17,6.70
2012,03,24,09,18,6.70
2012,03,24,09,19,6.70
2012,03,24,09,20,6.70
2012,03,24,09,21,6.70
2012,03,24,09,22,6.70
2012,03,24,09,23,6.70
2012,03,24,09,24,6.70
2012,03,24,09,25,6.70
2012,03,24,09,26,6.70
2012,03,24,09,27,6.70
2012,03,24,09,28,6.70
